Time,TemperatureF,DewpointF,PressureIn,WindDirection,WindDirectionDegrees,WindSpeedMPH,WindSpeedGustMPH,Humidity,HourlyPrecipIn,Conditions,Clouds,dailyrainin,SoftwareType,DateUTC
2013-09-16 00:10:00,56.9,51.8,30.07,West,270,0.0,0.0,83,0.00,,,0.00,Wunderground v.1.15,2013-09-16 04:10:00,
2013-09-16 00:11:00,56.9,52.0,30.07,West,270,0.0,0.0,83,0.00,,,0.00,weatherlink.com 1.10,2013-09-16 04:11:00,
2013-09-16 00:20:00,56.9,52.1,30.07,West,270,0.0,0.0,84,0.00,,,0.00,Wunderground v.1.15,2013-09-16 04:20:00,
2013-09-16 00:26:00,56.8,52.0,30.07,West,270,0.0,0.0,85,0.00,,,0.00,weatherlink.com 1.10,2013-09-16 04:26:00,
2013-09-16 00:30:00,56.8,52.3,30.07,West,270,0.0,0.0,85,0.00,,,0.00,Wunderground v.1.15,2013-09-16 04:30:00,
2013-09-16 00:40:00,56.7,52.6,30.06,West,270,0.0,0.0,86,0.00,,,0.00,Wunderground v.1.15,2013-09-16 04:40:00,
2013-09-16 00:50:00,56.8,52.7,30.06,West,270,0.0,0.0,86,0.00,,,0.00,Wunderground v.1.15,2013-09-16 04:50:00,
2013-09-16 00:57:00,56.8,53.0,30.06,West,270,0.0,1.0,86,0.00,,,0.00,weatherlink.com 1.10,2013-09-16 04:57:00,
2013-09-16 01:10:00,56.7,52.6,30.06,West,270,0.0,0.0,86,0.00,,,0.00,Wunderground v.1.15,2013-09-16 05:10:00,
2013-09-16 01:20:00,56.7,52.6,30.06,West,270,0.0,0.0,86,0.00,,,0.00,Wunderground v.1.15,2013-09-16 05:20:00,
2013-09-16 01:27:00,56.6,53.0,30.06,West,270,0.0,1.0,86,0.00,,,0.00,weatherlink.com 1.10,2013-09-16 05:27:00,
2013-09-16 01:40:00,56.6,52.8,30.06,West,270,0.0,1.0,87,0.00,,,0.00,Wunderground v.1.15,2013-09-16 05:40:00,
2013-09-16 01:50:00,56.5,52.7,30.05,West,270,0.0,1.0,87,0.00,,,0.00,Wunderground v.1.15,2013-09-16 05:50:00,
2013-09-16 01:57:00,56.4,53.0,30.05,West,270,0.0,1.0,88,0.00,,,0.00,weatherlink.com 1.10,2013-09-16 05:57:00,
2013-09-16 02:10:00,56.4,52.9,30.05,West,270,0.0,0.0,88,0.00,,,0.00,Wunderground v.1.15,2013-09-16 06:10:00,
2013-09-16 02:20:00,56.4,52.9,30.05,West,270,0.0,0.0,88,0.00,,,0.00,Wunderground v.1.15,2013-09-16 06:20:00,
2013-09-16 02:28:00,56.3,53.0,30.05,West,270,0.0,1.0,89,0.00,,,0.00,weatherlink.com 1.10,2013-09-16 06:28:00,
2013-09-16 02:40:00,56.1,52.9,30.04,West,270,0.0,1.0,89,0.00,,,0.00,Wunderground v.1.15,2013-09-16 06:40:00,
2013-09-16 02:50:00,55.9,53.0,30.04,West,270,0.0,1.0,90,0.00,,,0.00,Wunderground v.1.15,2013-09-16 06:50:00,
2013-09-16 02:58:00,55.7,53.0,30.03,West,270,0.0,0.0,90,0.00,,,0.00,weatherlink.com 1.10,2013-09-16 06:58:00,
2013-09-16 03:10:00,55.6,53.0,30.03,West,270,0.0,0.0,91,0.00,,,0.00,Wunderground v.1.15,2013-09-16 07:10:00,
2013-09-16 03:20:00,55.7,53.1,30.03,West,270,0.0,0.0,91,0.00,,,0.00,Wunderground v.1.15,2013-09-16 07:20:00,
2013-09-16 03:28:00,55.7,53.0,30.03,West,270,0.0,0.0,91,0.00,,,0.00,weatherlink.com 1.10,2013-09-16 07:28:00,
2013-09-16 03:40:00,55.7,53.1,30.04,West,270,0.0,0.0,91,0.00,,,0.00,Wunderground v.1.15,2013-09-16 07:40:00,
2013-09-16 03:50:00,55.7,53.1,30.03,West,270,0.0,0.0,91,0.00,,,0.00,Wunderground v.1.15,2013-09-16 07:50:00,
2013-09-16 03:58:00,55.7,53.0,30.03,West,270,0.0,0.0,91,0.00,,,0.00,weatherlink.com 1.10,2013-09-16 07:58:00,
2013-09-16 04:10:00,55.7,53.4,30.02,West,270,0.0,0.0,92,0.00,,,0.00,Wunderground v.1.15,2013-09-16 08:10:00,
2013-09-16 04:20:00,55.7,53.4,30.02,West,270,0.0,0.0,92,0.00,,,0.00,Wunderground v.1.15,2013-09-16 08:20:00,
2013-09-16 04:28:00,55.7,54.0,30.03,West,270,0.0,0.0,92,0.00,,,0.00,weatherlink.com 1.10,2013-09-16 08:28:00,
2013-09-16 04:40:00,55.7,53.4,30.02,West,270,0.0,0.0,92,0.00,,,0.00,Wunderground v.1.15,2013-09-16 08:40:00,
2013-09-16 04:50:00,55.8,53.5,30.02,West,270,0.0,0.0,92,0.00,,,0.00,Wunderground v.1.15,2013-09-16 08:50:00,
2013-09-16 04:59:00,55.9,54.0,30.02,West,270,0.0,0.0,92,0.00,,,0.00,weatherlink.com 1.10,2013-09-16 08:59:00,
2013-09-16 05:10:00,56.0,53.7,30.02,West,270,0.0,0.0,92,0.00,,,0.00,Wunderground v.1.15,2013-09-16 09:10:00,
2013-09-16 05:20:00,56.2,53.9,30.01,West,270,0.0,0.0,92,0.00,,,0.00,Wunderground v.1.15,2013-09-16 09:20:00,
2013-09-16 05:29:00,56.2,54.0,30.02,West,270,0.0,0.0,92,0.00,,,0.00,weatherlink.com 1.10,2013-09-16 09:29:00,
2013-09-16 05:40:00,56.3,54.3,30.02,West,270,0.0,0.0,93,0.00,,,0.00,Wunderground v.1.15,2013-09-16 09:40:00,
2013-09-16 05:50:00,56.3,54.3,30.03,West,270,0.0,0.0,93,0.00,,,0.00,Wunderground v.1.15,2013-09-16 09:50:00,
2013-09-16 05:59:00,56.3,54.0,30.03,West,270,0.0,0.0,93,0.00,,,0.00,weatherlink.com 1.10,2013-09-16 09:59:00,
2013-09-16 06:10:00,56.4,54.4,30.03,West,270,0.0,0.0,93,0.00,,,0.00,Wunderground v.1.15,2013-09-16 10:10:00,
2013-09-16 06:20:00,56.5,54.8,30.04,West,270,0.0,0.0,94,0.00,,,0.00,Wunderground v.1.15,2013-09-16 10:20:00,
2013-09-16 06:29:00,56.5,55.0,30.04,West,270,0.0,0.0,94,0.00,,,0.00,weatherlink.com 1.10,2013-09-16 10:29:00,
2013-09-16 06:40:00,56.4,54.7,30.04,West,270,0.0,0.0,94,0.00,,,0.00,Wunderground v.1.15,2013-09-16 10:40:00,
2013-09-16 06:50:00,56.4,54.7,30.03,West,270,0.0,0.0,94,0.00,,,0.00,Wunderground v.1.15,2013-09-16 10:50:00,
2013-09-16 07:00:00,56.4,55.0,30.03,West,270,0.0,0.0,95,0.00,,,0.00,weatherlink.com 1.10,2013-09-16 11:00:00,
2013-09-16 07:10:00,56.5,55.1,30.04,West,270,0.0,0.0,95,0.00,,,0.00,Wunderground v.1.15,2013-09-16 11:10:00,
2013-09-16 07:15:00,56.5,55.0,30.04,West,270,0.0,1.0,95,0.00,,,0.00,weatherlink.com 1.10,2013-09-16 11:15:00,
2013-09-16 07:30:00,56.6,55.0,30.04,West,270,0.0,0.0,95,0.00,,,0.00,weatherlink.com 1.10,2013-09-16 11:30:00,
2013-09-16 07:40:00,56.7,55.3,30.05,West,270,0.0,0.0,95,0.00,,,0.00,Wunderground v.1.15,2013-09-16 11:40:00,
2013-09-16 07:50:00,56.8,55.4,30.04,West,270,0.0,0.0,95,0.00,,,0.01,Wunderground v.1.15,2013-09-16 11:50:00,
2013-09-16 07:59:00,56.9,56.0,30.04,West,270,0.0,0.0,95,0.01,,,0.01,weatherlink.com 1.10,2013-09-16 11:59:00,
2013-09-16 08:10:00,57.2,56.1,30.05,West,270,0.0,0.0,96,0.00,,,0.01,Wunderground v.1.15,2013-09-16 12:10:00,
2013-09-16 08:20:00,57.4,56.3,30.05,West,270,0.0,0.0,96,0.00,,,0.01,Wunderground v.1.15,2013-09-16 12:20:00,
2013-09-16 08:29:00,57.6,56.0,30.04,West,270,0.0,0.0,95,0.01,,,0.01,weatherlink.com 1.10,2013-09-16 12:29:00,
2013-09-16 08:40:00,57.7,56.3,30.05,West,270,0.0,0.0,95,0.00,,,0.01,Wunderground v.1.15,2013-09-16 12:40:00,
2013-09-16 08:45:00,57.8,56.0,30.05,West,270,0.0,0.0,95,0.00,,,0.01,weatherlink.com 1.10,2013-09-16 12:45:00,
2013-09-16 09:00:00,57.9,55.9,30.07,West,270,0.0,0.0,93,0.00,,,0.01,Wunderground v.1.15,2013-09-16 13:00:00,
2013-09-16 09:10:00,58.0,55.7,30.06,West,270,0.0,0.0,92,0.00,,,0.01,Wunderground v.1.15,2013-09-16 13:10:00,
2013-09-16 09:16:00,58.0,56.0,30.07,West,270,0.0,0.0,92,0.00,,,0.01,weatherlink.com 1.10,2013-09-16 13:16:00,
2013-09-16 09:30:00,58.2,55.6,30.08,West,270,0.0,1.0,91,0.00,,,0.01,Wunderground v.1.15,2013-09-16 13:30:00,
2013-09-16 09:40:00,58.3,55.7,30.07,West,270,0.0,1.0,91,0.00,,,0.01,Wunderground v.1.15,2013-09-16 13:40:00,
2013-09-16 09:45:00,58.4,56.0,30.07,West,270,0.0,0.0,91,0.00,,,0.01,weatherlink.com 1.10,2013-09-16 13:45:00,
2013-09-16 10:00:00,58.7,56.4,30.07,West,270,0.0,0.0,92,0.00,,,0.01,Wunderground v.1.15,2013-09-16 14:00:00,
2013-09-16 10:10:00,58.9,55.7,30.06,West,270,0.0,0.0,89,0.00,,,0.01,Wunderground v.1.15,2013-09-16 14:10:00,
2013-09-16 10:15:00,59.1,56.0,30.06,West,270,0.0,0.0,88,0.00,,,0.01,weatherlink.com 1.10,2013-09-16 14:15:00,
2013-09-16 10:30:00,59.6,55.4,30.07,West,270,0.0,0.0,86,0.00,,,0.01,Wunderground v.1.15,2013-09-16 14:30:00,
2013-09-16 10:40:00,59.9,55.4,30.08,West,270,0.0,0.0,85,0.00,,,0.01,Wunderground v.1.15,2013-09-16 14:40:00,
2013-09-16 10:47:00,60.1,55.0,30.07,West,270,0.0,1.0,84,0.00,,,0.01,weatherlink.com 1.10,2013-09-16 14:47:00,
2013-09-16 11:00:00,60.5,55.6,30.07,West,270,0.0,0.0,84,0.00,,,0.01,Wunderground v.1.15,2013-09-16 15:00:00,
2013-09-16 11:10:00,60.8,55.3,30.07,West,270,0.0,0.0,82,0.00,,,0.01,Wunderground v.1.15,2013-09-16 15:10:00,
2013-09-16 11:16:00,61.1,55.0,30.07,West,270,0.0,1.0,80,0.00,,,0.01,weatherlink.com 1.10,2013-09-16 15:16:00,
2013-09-16 11:30:00,61.8,54.5,30.07,West,270,0.0,0.0,77,0.00,,,0.01,Wunderground v.1.15,2013-09-16 15:30:00,
2013-09-16 11:40:00,62.4,54.4,30.06,North,355,0.0,0.0,75,0.00,,,0.01,Wunderground v.1.15,2013-09-16 15:40:00,
2013-09-16 11:46:00,62.6,55.0,30.06,North,355,0.0,3.0,75,0.00,,,0.01,weatherlink.com 1.10,2013-09-16 15:46:00,
2013-09-16 12:00:00,63.3,53.3,30.06,North,355,0.0,0.0,70,0.00,,,0.01,Wunderground v.1.15,2013-09-16 16:00:00,
2013-09-16 12:10:00,64.3,53.9,30.06,NNW,344,0.0,0.0,69,0.00,,,0.01,Wunderground v.1.15,2013-09-16 16:10:00,
2013-09-16 12:17:00,64.8,54.0,30.05,WSW,252,0.0,5.0,68,0.00,,,0.01,weatherlink.com 1.10,2013-09-16 16:17:00,
2013-09-16 12:30:00,65.6,52.7,30.05,NNE,17,1.0,4.0,63,0.00,,,0.01,Wunderground v.1.15,2013-09-16 16:30:00,
2013-09-16 12:40:00,66.3,52.4,30.05,WNW,287,1.0,1.0,61,0.00,,,0.01,Wunderground v.1.15,2013-09-16 16:40:00,
2013-09-16 12:47:00,67.1,53.0,30.05,NNW,330,0.0,7.0,60,0.00,,,0.01,weatherlink.com 1.10,2013-09-16 16:47:00,
2013-09-16 13:00:00,67.7,52.9,30.05,WNW,303,1.0,1.0,59,0.00,,,0.01,Wunderground v.1.15,2013-09-16 17:00:00,
2013-09-16 13:10:00,68.1,53.2,30.05,NNE,12,2.0,3.0,59,0.00,,,0.01,Wunderground v.1.15,2013-09-16 17:10:00,
2013-09-16 13:18:00,67.9,53.0,30.05,NNE,15,1.0,5.0,60,0.00,,,0.01,weatherlink.com 1.10,2013-09-16 17:18:00,
2013-09-16 13:30:00,67.8,54.3,30.05,WNW,284,0.0,7.0,62,0.00,,,0.01,Wunderground v.1.15,2013-09-16 17:30:00,
2013-09-16 13:40:00,68.0,54.0,30.05,NE,41,1.0,1.0,61,0.00,,,0.01,Wunderground v.1.15,2013-09-16 17:40:00,
2013-09-16 13:48:00,67.8,54.0,30.05,NW,317,0.0,5.0,61,0.00,,,0.01,weatherlink.com 1.10,2013-09-16 17:48:00,
2013-09-16 14:00:00,68.5,54.5,30.05,NNW,345,1.0,2.0,61,0.00,,,0.01,Wunderground v.1.15,2013-09-16 18:00:00,
2013-09-16 14:10:00,68.3,54.8,30.05,NNW,348,0.0,0.0,62,0.00,,,0.01,Wunderground v.1.15,2013-09-16 18:10:00,
2013-09-16 14:18:00,67.8,54.0,30.05,NNW,348,0.0,2.0,62,0.00,,,0.01,weatherlink.com 1.10,2013-09-16 18:18:00,
2013-09-16 14:30:00,67.2,55.0,30.05,NNW,348,0.0,4.0,65,0.00,,,0.01,Wunderground v.1.15,2013-09-16 18:30:00,
2013-09-16 14:40:00,67.0,54.4,30.05,North,355,0.0,4.0,64,0.00,,,0.01,Wunderground v.1.15,2013-09-16 18:40:00,
2013-09-16 14:48:00,67.0,55.0,30.05,North,355,0.0,2.0,65,0.00,,,0.01,weatherlink.com 1.10,2013-09-16 18:48:00,
2013-09-16 15:00:00,67.1,55.4,30.05,North,355,0.0,0.0,66,0.00,,,0.01,Wunderground v.1.15,2013-09-16 19:00:00,
2013-09-16 15:10:00,66.7,55.4,30.05,North,355,0.0,0.0,67,0.00,,,0.01,Wunderground v.1.15,2013-09-16 19:10:00,
2013-09-16 15:18:00,66.5,55.0,30.05,North,355,0.0,1.0,67,0.00,,,0.01,weatherlink.com 1.10,2013-09-16 19:18:00,
2013-09-16 15:30:00,66.2,54.5,30.05,North,355,0.0,1.0,66,0.00,,,0.01,Wunderground v.1.15,2013-09-16 19:30:00,
2013-09-16 15:40:00,66.3,55.0,30.05,North,355,0.0,1.0,67,0.00,,,0.01,Wunderground v.1.15,2013-09-16 19:40:00,
2013-09-16 15:48:00,66.5,56.0,30.05,North,355,0.0,1.0,68,0.00,,,0.01,weatherlink.com 1.10,2013-09-16 19:48:00,
2013-09-16 16:00:00,66.5,54.8,30.05,WSW,250,0.0,4.0,66,0.00,,,0.01,Wunderground v.1.15,2013-09-16 20:00:00,
2013-09-16 16:10:00,66.5,53.9,30.05,NW,306,0.0,0.0,64,0.00,,,0.01,Wunderground v.1.15,2013-09-16 20:10:00,
2013-09-16 16:19:00,66.4,53.0,30.05,West,272,2.0,5.0,63,0.00,,,0.01,weatherlink.com 1.10,2013-09-16 20:19:00,
2013-09-16 16:30:00,66.5,54.4,30.05,WNW,294,0.0,1.0,65,0.00,,,0.01,Wunderground v.1.15,2013-09-16 20:30:00,
2013-09-16 16:40:00,66.5,53.9,30.05,NW,319,0.0,1.0,64,0.00,,,0.01,Wunderground v.1.15,2013-09-16 20:40:00,
2013-09-16 16:49:00,66.3,54.0,30.05,NE,35,0.0,4.0,65,0.00,,,0.01,weatherlink.com 1.10,2013-09-16 20:49:00,
2013-09-16 17:00:00,66.3,54.6,30.06,NE,35,0.0,0.0,66,0.00,,,0.01,Wunderground v.1.15,2013-09-16 21:00:00,
2013-09-16 17:10:00,66.1,54.4,30.06,NE,35,0.0,0.0,66,0.00,,,0.01,Wunderground v.1.15,2013-09-16 21:10:00,
2013-09-16 17:20:00,65.9,54.0,30.07,West,259,0.0,3.0,65,0.00,,,0.01,weatherlink.com 1.10,2013-09-16 21:20:00,
2013-09-16 17:30:00,65.8,54.5,30.07,West,272,0.0,3.0,67,0.00,,,0.01,Wunderground v.1.15,2013-09-16 21:30:00,
2013-09-16 17:40:00,65.6,54.8,30.07,West,273,0.0,3.0,68,0.00,,,0.01,Wunderground v.1.15,2013-09-16 21:40:00,
2013-09-16 17:49:00,65.3,55.0,30.07,West,275,0.0,3.0,69,0.00,,,0.01,weatherlink.com 1.10,2013-09-16 21:49:00,
2013-09-16 18:00:00,65.0,54.6,30.08,West,275,0.0,0.0,69,0.00,,,0.01,Wunderground v.1.15,2013-09-16 22:00:00,
2013-09-16 18:10:00,64.8,54.0,30.09,West,275,0.0,0.0,68,0.00,,,0.01,Wunderground v.1.15,2013-09-16 22:10:00,
2013-09-16 18:20:00,64.4,54.0,30.09,West,277,0.0,0.0,69,0.00,,,0.01,Wunderground v.1.15,2013-09-16 22:20:00,
2013-09-16 18:30:00,63.9,53.9,30.09,West,277,0.0,3.0,70,0.00,,,0.01,Wunderground v.1.15,2013-09-16 22:30:00,
2013-09-16 18:35:00,63.7,54.0,30.09,West,277,0.0,0.0,70,0.00,,,0.01,weatherlink.com 1.10,2013-09-16 22:35:00,
2013-09-16 18:50:00,63.3,54.1,30.09,West,277,0.0,3.0,72,0.00,,,0.01,Wunderground v.1.15,2013-09-16 22:50:00,
2013-09-16 19:00:00,63.0,54.2,30.09,West,277,0.0,0.0,73,0.00,,,0.01,Wunderground v.1.15,2013-09-16 23:00:00,
2013-09-16 19:10:00,62.7,54.7,30.10,West,277,0.0,0.0,75,0.00,,,0.01,Wunderground v.1.15,2013-09-16 23:10:00,
2013-09-16 19:20:00,62.3,54.6,30.10,West,277,0.0,0.0,76,0.00,,,0.01,Wunderground v.1.15,2013-09-16 23:20:00,
2013-09-16 19:30:00,61.9,54.6,30.10,West,277,0.0,0.0,77,0.00,,,0.01,Wunderground v.1.15,2013-09-16 23:30:00,
2013-09-16 19:40:00,61.5,54.6,30.11,West,277,0.0,0.0,78,0.00,,,0.01,Wunderground v.1.15,2013-09-16 23:40:00,
2013-09-16 19:50:00,61.1,54.5,30.12,West,277,0.0,0.0,79,0.00,,,0.01,Wunderground v.1.15,2013-09-16 23:50:00,
2013-09-16 20:00:00,60.9,54.7,30.12,West,277,0.0,0.0,80,0.00,,,0.01,Wunderground v.1.15,2013-09-17 00:00:00,
2013-09-16 20:10:00,60.9,54.7,30.12,West,277,0.0,0.0,80,0.00,,,0.01,Wunderground v.1.15,2013-09-17 00:10:00,
2013-09-16 20:20:00,61.3,54.4,30.13,West,266,0.0,0.0,78,0.00,,,0.01,Wunderground v.1.15,2013-09-17 00:20:00,
2013-09-16 20:30:00,61.5,54.2,30.13,West,259,0.0,0.0,77,0.00,,,0.01,Wunderground v.1.15,2013-09-17 00:30:00,
2013-09-16 20:35:00,61.4,54.0,30.13,West,259,0.0,1.0,77,0.00,,,0.01,weatherlink.com 1.10,2013-09-17 00:35:00,
2013-09-16 20:50:00,61.0,53.7,30.14,West,259,0.0,0.0,77,0.00,,,0.01,Wunderground v.1.15,2013-09-17 00:50:00,
2013-09-16 21:00:00,60.8,53.9,30.15,West,259,0.0,0.0,78,0.00,,,0.01,Wunderground v.1.15,2013-09-17 01:00:00,
2013-09-16 21:06:00,60.6,53.0,30.15,West,259,0.0,1.0,76,0.00,,,0.01,weatherlink.com 1.10,2013-09-17 01:06:00,
2013-09-16 21:20:00,60.3,53.1,30.16,West,259,0.0,0.0,77,0.00,,,0.01,Wunderground v.1.15,2013-09-17 01:20:00,
2013-09-16 21:30:00,60.3,53.4,30.16,West,267,0.0,1.0,78,0.00,,,0.01,Wunderground v.1.15,2013-09-17 01:30:00,
2013-09-16 21:36:00,60.2,54.0,30.16,West,269,0.0,3.0,79,0.00,,,0.01,weatherlink.com 1.10,2013-09-17 01:36:00,
2013-09-16 21:50:00,59.5,53.0,30.17,NNE,21,1.0,1.0,79,0.00,,,0.01,Wunderground v.1.15,2013-09-17 01:50:00,
2013-09-16 22:00:00,58.9,52.7,30.18,NNE,22,0.0,0.0,80,0.00,,,0.01,Wunderground v.1.15,2013-09-17 02:00:00,
2013-09-16 22:06:00,58.5,52.0,30.19,NNE,21,0.0,4.0,80,0.00,,,0.01,weatherlink.com 1.10,2013-09-17 02:06:00,
2013-09-16 22:20:00,57.6,51.1,30.19,NNE,24,1.0,1.0,79,0.00,,,0.01,Wunderground v.1.15,2013-09-17 02:20:00,
2013-09-16 22:30:00,57.0,50.2,30.20,NE,35,1.0,3.0,78,0.00,,,0.01,Wunderground v.1.15,2013-09-17 02:30:00,
2013-09-16 22:37:00,56.7,50.0,30.20,NNE,14,3.0,7.0,77,0.00,,,0.01,weatherlink.com 1.10,2013-09-17 02:37:00,
2013-09-16 22:50:00,56.0,49.2,30.21,NNE,16,1.0,1.0,78,0.00,,,0.01,Wunderground v.1.15,2013-09-17 02:50:00,
2013-09-16 23:00:00,55.7,48.9,30.21,NNE,14,0.0,0.0,78,0.00,,,0.01,Wunderground v.1.15,2013-09-17 03:00:00,
2013-09-16 23:08:00,55.4,49.0,30.22,NNE,14,0.0,3.0,78,0.00,,,0.01,weatherlink.com 1.10,2013-09-17 03:08:00,
2013-09-16 23:20:00,54.8,48.1,30.22,North,11,1.0,5.0,78,0.00,,,0.01,Wunderground v.1.15,2013-09-17 03:20:00,
2013-09-16 23:30:00,54.2,47.1,30.23,NNE,22,2.0,2.0,77,0.00,,,0.01,Wunderground v.1.15,2013-09-17 03:30:00,
2013-09-16 23:38:00,53.9,47.0,30.23,North,5,4.0,6.0,77,0.00,,,0.01,weatherlink.com 1.10,2013-09-17 03:38:00,
2013-09-16 23:50:00,53.5,46.1,30.24,NNE,21,1.0,2.0,76,0.00,,,0.01,Wunderground v.1.15,2013-09-17 03:50:00,